COSMOS 1275 DEB, 12695

Orbit data source: Space-Track

COSMOS 1275 DEB, 12695 is space debris in LEO originally from a launch on Thu, 04 Jun 1981 UTC launched from the Plesetsk Missile And Space Complex (PKMTR). Debris objects in space refer to the collection of defunct objects orbiting the Earth. Examples of debris include non-operational satellites, rocket bodies, and fragments generated from explosions, collisions, or faulty payload assembly.

Loading next visibility...
Identifier
12695, 1981-053AP
Orbit
LEO
Country
Flag of CISCIS
Related business
Manufacturer
Unknown
Mission
Spacecraft
Bus & Motor
Unknown
Mass
Unknown
Launch date (UTC)
1981-06-04 (44 years ago)
Launch vehicle
Unknown
Launch site
Plesetsk Missile And Space Complex (PKMTR)
Object type
Payload
Rocket body
Debris
Shape & HBR
Unknown shape, 0.1 m
Radar Cross Section
Small (<0.1 m²)

Expand to show TLE details & history
Last TLE update: 6 hours ago

TLE from 6 hours ago
0 COSMOS 1275 DEB
1 12695U 81053AP  25300.15061875  .00001536  00000-0  15557-2 0  9993
2 12695  83.0093  72.5918 0105659 322.9242 213.7712 13.74113991197065
Epoch: 2025-10-27T03:36Z
TLE epoch observation values (Epoch: 2025-10-27T03:36:53.460Z)
Latitude
3.84953°
Longitude
162.14215°
Altitude
1,052.254 km
Speed
7.294 km/s
True Right ascension
16h 48m 29s
True Declination
3° 49' 39"
Sunlit
Object was in daylight at epoch
Visualization orbit readout
Latitude
Unknown
Longitude
Unknown
Altitude
Unknown
Speed
Unknown
Apparent Right ascension
Unknown
Apparent Declination
Unknown
Sunlit
N/A
Visualization observer readout
Local Sidereal Time
04:34:19
Azimuth
Unknown
Elevation
Unknown
Doppler factor
Unknown
Orbital elements
Apogee altitude
1,059.751 km
Perigee altitude
904.219 km
Semi-major axis
7,360.122 km
Eccentricity
0.01057
Inclination
83.0093°
RAAN
72.5918°
Arg. of periapsis
322.9242°
True anomaly
213.10549°
Mean anomaly
213.7712°
Eccentric anomaly
213.43762°
Mean motion
3.43729 °/min
Orbital period
104.73 mins
BSTAR
0.0015557
Loading maneuver chart data...
Computing Atmospheric mass density...

Documentation

Showing up to 5 results
|